Weather History for KHPN - June, 2013

Change the Weather History Date:

Tuesday, June 25, 2013

  Actual Average Record
Temperature  
Mean Temperature 78 °F -  
Max Temperature 90 °F 78 °F 91 °F (1997)
Min Temperature 68 °F 61 °F 47 °F (1979)
Cooling Degree Days 13    
Growing Degree Days 28 (Base 50)    
Moisture  
Dew Point 66 °F    
Average Humidity 64    
Maximum Humidity 90    
Minimum Humidity 45    
Precipitation  
Precipitation 0.00 in - - ()
Sea Level Pressure  
Sea Level Pressure 29.88 in    
Wind  
Wind Speed 4 mph (West)    
Max Wind Speed 12 mph    
Max Gust Speed 18 mph    
Visibility 10 miles    
Events      
Averages and records for this station are not official NWS values.
T = Trace of Precipitation, MM = Missing Value Source: NWS Daily Summary

Daily Weather History Graph

Daily Weather History Graph

Search for Another Location

Airport or City:

Trip Planner

Search our weather history database for the weather conditions in past years. The results will help you decide how hot, cold, wet, or windy it might be!

Date:

Astronomy

Jun. 25, 2013 Rise Set
Actual Time 5:23 AM EDT 8:31 PM EDT
Civil Twilight 4:50 AM EDT 9:04 PM EDT
Nautical Twilight 4:07 AM EDT 9:47 PM EDT
Astronomical Twilight 3:15 AM EDT 10:39 PM EDT
Moon 10:13 PM EDT (6/25) 8:01 AM EDT (6/25)
Length of Visible Light 16h 14m
Length of Day
15h 07m
Waning Gibbous, 93% of the Moon is Illuminated
Jun 25
Waning Gibbous
Jun 30
Last Quarter
Jul 8
New
Jul 15
First Quarter
Jul 22
Full

Hourly Weather History & Observations

Time (EDT) Temp. Heat Index Dew Point Humidity Pressure Visibility Wind Dir Wind Speed Gust Speed Precip Events Conditions
12:56 AM 71.1 °F - 63.0 °F 75% 29.97 in 10.0 mi West 4.6 mph - N/A   Clear
1:56 AM 72.0 °F - 64.0 °F 76% 29.95 in 10.0 mi NNW 3.5 mph - N/A   Clear
2:56 AM 70.0 °F - 64.0 °F 81% 29.94 in 10.0 mi Calm Calm - N/A   Clear
3:56 AM 69.1 °F - 64.0 °F 84% 29.94 in 10.0 mi Calm Calm - N/A   Clear
4:56 AM 69.1 °F - 64.0 °F 84% 29.94 in 10.0 mi Calm Calm - N/A   Clear
5:56 AM 68.0 °F - 64.9 °F 90% 29.95 in 9.0 mi WNW 4.6 mph - N/A   Clear
6:56 AM 73.0 °F - 64.9 °F 76% 29.94 in 10.0 mi West 5.8 mph - N/A   Clear
7:56 AM 75.0 °F - 66.0 °F 73% 29.94 in 10.0 mi Variable 3.5 mph - N/A   Clear
8:56 AM 78.1 °F - 66.9 °F 68% 29.94 in 10.0 mi SW 4.6 mph - N/A   Clear
9:56 AM 81.0 °F 84.1 °F 69.1 °F 67% 29.93 in 10.0 mi NW 3.5 mph - N/A   Clear
10:56 AM 82.9 °F 86.5 °F 69.1 °F 63% 29.93 in 10.0 mi Variable 3.5 mph - N/A   Clear
11:56 AM 84.9 °F 88.2 °F 68.0 °F 57% 29.92 in 10.0 mi Variable 3.5 mph - N/A   Clear
12:56 PM 87.1 °F 89.9 °F 66.9 °F 51% 29.90 in 10.0 mi West 4.6 mph - N/A   Clear
1:56 PM 88.0 °F 90.3 °F 66.0 °F 48% 29.87 in 8.0 mi West 8.1 mph - N/A   Mostly Cloudy
2:56 PM 88.0 °F 89.6 °F 64.9 °F 46% 29.85 in 10.0 mi Variable 5.8 mph - N/A   Partly Cloudy
3:56 PM 88.0 °F 89.3 °F 64.0 °F 45% 29.82 in 10.0 mi Variable 4.6 mph 16.1 mph N/A   Scattered Clouds
4:56 PM 86.0 °F 87.6 °F 64.9 °F 49% 29.82 in 10.0 mi Variable 6.9 mph - N/A   Mostly Cloudy
5:56 PM 84.9 °F 87.1 °F 66.0 °F 53% 29.81 in 10.0 mi West 10.4 mph 16.1 mph 0.00 in   Partly Cloudy
6:56 PM 82.9 °F 85.0 °F 66.0 °F 56% 29.79 in 10.0 mi WSW 5.8 mph - N/A   Clear
7:56 PM 82.0 °F 84.5 °F 66.9 °F 60% 29.79 in 10.0 mi Variable 6.9 mph - N/A   Partly Cloudy
8:56 PM 81.0 °F 83.0 °F 66.0 °F 60% 29.79 in 10.0 mi West 11.5 mph 18.4 mph N/A   Partly Cloudy
9:56 PM 80.1 °F 81.9 °F 64.9 °F 60% 29.81 in 10.0 mi West 8.1 mph - N/A   Partly Cloudy
10:56 PM 79.0 °F - 64.9 °F 62% 29.82 in 10.0 mi West 6.9 mph - N/A   Clear
11:56 PM 79.0 °F - 64.9 °F 62% 29.81 in 10.0 mi West 5.8 mph - N/A   Scattered Clouds